DW3800 Weather Reports


Display with metric or nautical units.
time (UTC)temp
F
wind
direction
speed
MPH
gust
MPH
rain 1hr
in
rain 24hr
in
rain mn
in
humidity
%
barometer
mb
20260506033253 41 251 2.0 5.0 0.00 0.00 0.00 57 1015.1
20260506032750 41 252 1.0 9.0 0.00 0.00 0.00 56 1015.1
20260506032247 41 217 3.0 8.0 0.00 0.00 0.00 56 1015.0
20260506031744 41 223 4.0 9.0 0.00 0.00 0.00 56 1015.2
20260506031241 41 257 2.0 6.0 0.00 0.00 0.00 56 1015.1
20260506030739 42 211 5.0 8.0 0.00 0.00 0.00 56 1015.2
20260506030237 42 191 2.0 6.0 0.00 0.00 0.00 55 1015.4
20260506025733 42 199 2.0 7.0 0.00 0.00 0.00 55 1014.8
20260506025230 42 255 2.0 2.0 0.00 0.00 0.00 55 1014.9
20260506024726 42 214 0.0 2.0 0.00 0.00 0.00 55 1014.8
20260506024223 42 240 5.0 6.0 0.00 0.00 0.00 54 1014.7
20260506023720 42 11 1.0 6.0 0.00 0.00 0.00 54 1014.7
20260506023217 43 220 0.0 3.0 0.00 0.00 0.00 54 1014.8
20260506022713 43 215 2.0 6.0 0.00 0.00 0.00 52 1014.7
20260506022211 43 190 4.0 5.0 0.00 0.00 0.00 52 1014.3
20260506021709 44 212 4.0 7.0 0.00 0.00 0.00 52 1014.3
20260506021206 44 186 3.0 6.0 0.00 0.00 0.00 52 1014.1
20260506020703 44 239 5.0 9.0 0.00 0.00 0.00 51 1014.2
20260506020201 44 251 5.0 8.0 0.00 0.00 0.00 51 1013.9
20260506015658 44 249 4.0 8.0 0.00 0.00 0.00 51 1013.7
20260506015155 44 266 1.0 2.0 0.00 0.00 0.00 51 1013.8
20260506014652 45 180 3.0 8.0 0.00 0.00 0.00 49 1013.7
20260506014148 45 233 4.0 7.0 0.00 0.00 0.00 49 1013.6
20260506013646 45 176 1.0 6.0 0.00 0.00 0.00 49 1013.7
20260506013143 45 267 5.0 10.0 0.00 0.00 0.00 49 1013.3
20260506012639 46 214 2.0 5.0 0.00 0.00 0.00 49 1013.6
20260506012136 46 245 2.0 9.0 0.00 0.00 0.00 48 1013.5
20260506011633 46 237 2.0 5.0 0.00 0.00 0.00 48 1013.5
20260506011129 46 243 4.0 7.0 0.00 0.00 0.00 47 1013.5
20260506010628 46 245 3.0 5.0 0.00 0.00 0.00 47 1013.4
20260506010125 47 232 2.0 5.0 0.00 0.00 0.00 47 1013.4
20260506005622 47 179 3.0 8.0 0.00 0.00 0.00 47 1013.3
20260506005118 47 147 1.0 6.0 0.00 0.00 0.00 47 1013.3
20260506004615 47 253 4.0 8.0 0.00 0.00 0.00 46 1013.2
20260506004112 47 173 1.0 7.0 0.00 0.00 0.00 46 1013.2
20260506003609 47 186 3.0 9.0 0.00 0.00 0.00 45 1013.1
20260506003105 47 212 2.0 5.0 0.00 0.00 0.00 46 1013.2
20260506002600 47 246 5.0 8.0 0.00 0.00 0.00 45 1013.1
20260506002057 47 231 4.0 9.0 0.00 0.00 0.00 46 1012.8
20260506001553 47 226 3.0 6.0 0.00 0.00 0.00 44 1012.9
20260506001050 47 227 3.0 8.0 0.00 0.00 0.00 45 1013.0
20260506000548 47 249 3.0 14.0 0.00 0.00 0.00 44 1012.8
20260506000045 47 231 2.0 6.0 0.00 0.00 0.00 46 1013.0
20260505235543 47 243 0.0 5.0 0.00 0.00 0.00 45 1012.9
20260505235040 47 258 4.0 9.0 0.00 0.00 0.00 45 1012.8
20260505234537 48 247 4.0 8.0 0.00 0.00 0.00 44 1012.6
20260505234033 48 228 4.0 7.0 0.00 0.00 0.00 44 1012.9
20260505233531 47 243 2.0 2.0 0.00 0.00 0.00 45 1012.9
20260505233028 48 252 4.0 5.0 0.00 0.00 0.00 45 1012.7
20260505232526 48 217 4.0 5.0 0.00 0.00 0.00 44 1012.8
20260505232023 48 245 2.0 7.0 0.00 0.00 0.00 44 1012.8
20260505231520 48 255 3.0 5.0 0.00 0.00 0.00 44 1012.7
20260505231019 48 191 1.0 11.0 0.00 0.00 0.00 45 1012.8
20260505230516 48 236 4.0 7.0 0.00 0.00 0.00 44 1012.8
20260505230012 48 219 2.0 9.0 0.00 0.00 0.00 44 1012.6
20260505225509 48 142 2.0 6.0 0.00 0.00 0.00 44 1012.8
20260505225005 48 232 3.0 7.0 0.00 0.00 0.00 45 1012.7
20260505224502 48 146 0.0 2.0 0.00 0.00 0.00 46 1012.8
20260505223959 48 185 3.0 7.0 0.00 0.00 0.00 44 1012.5
20260505223456 48 253 5.0 8.0 0.00 0.00 0.00 44 1012.8
20260505222952 48 183 7.0 11.0 0.00 0.00 0.00 44 1012.6
20260505222449 49 211 7.0 11.0 0.00 0.00 0.00 43 1012.7
20260505221944 49 271 3.0 8.0 0.00 0.00 0.00 43 1012.7
20260505221442 48 257 6.0 8.0 0.00 0.00 0.00 43 1012.7
20260505220939 48 129 1.0 9.0 0.00 0.00 0.00 44 1012.7
20260505220436 48 211 9.0 10.0 0.00 0.00 0.00 44 1012.7
20260505215934 48 181 1.0 9.0 0.00 0.00 0.00 44 1012.8
20260505215432 48 162 6.0 9.0 0.00 0.00 0.00 44 1012.8
20260505214929 48 191 3.0 6.0 0.00 0.00 0.00 44 1012.7
20260505214427 48 158 6.0 8.0 0.00 0.00 0.00 44 1012.8
20260505213924 49 183 5.0 15.0 0.00 0.00 0.00 44 1012.9
20260505213421 48 233 3.0 13.0 0.00 0.00 0.00 44 1012.8
20260505212917 49 221 4.0 11.0 0.00 0.00 0.00 43 1012.8
20260505212414 48 183 8.0 10.0 0.00 0.00 0.00 43 1012.9
20260505211911 49 201 2.0 7.0 0.00 0.00 0.00 44 1012.9
20260505211409 48 201 4.0 7.0 0.00 0.00 0.00 43 1012.7
20260505210904 49 239 3.0 7.0 0.00 0.00 0.00 44 1012.9
20260505210402 48 268 3.0 9.0 0.00 0.00 0.00 44 1012.9
20260505205859 48 249 2.0 3.0 0.00 0.00 0.00 44 1013.0
20260505205357 49 249 3.0 7.0 0.00 0.00 0.00 43 1013.0
20260505204853 48 284 3.0 5.0 0.00 0.00 0.00 44 1012.8
20260505204351 49 214 5.0 10.0 0.00 0.00 0.00 42 1013.0
20260505203848 49 239 9.0 10.0 0.00 0.00 0.00 41 1012.8
20260505203345 48 206 6.0 14.0 0.00 0.00 0.00 43 1012.8
20260505202841 48 239 3.0 3.0 0.00 0.00 0.00 44 1013.0
20260505202337 48 185 5.0 13.0 0.00 0.00 0.00 43 1012.9
20260505201834 49 218 7.0 15.0 0.00 0.00 0.00 42 1012.8
20260505201332 48 193 2.0 9.0 0.00 0.00 0.00 43 1013.0
20260505200830 48 154 5.0 8.0 0.00 0.00 0.00 43 1013.0
20260505200326 48 157 1.0 7.0 0.00 0.00 0.00 44 1013.1
20260505195822 48 226 5.0 13.0 0.00 0.00 0.00 42 1012.9
20260505195319 48 160 3.0 10.0 0.00 0.00 0.00 43 1012.9
20260505194816 48 152 3.0 13.0 0.00 0.00 0.00 43 1012.9
20260505194314 48 212 7.0 14.0 0.00 0.00 0.00 42 1013.1
20260505193808 49 217 8.0 10.0 0.00 0.00 0.00 42 1012.9
20260505193307 48 208 6.0 13.0 0.00 0.00 0.00 43 1012.9
20260505192805 48 167 4.0 10.0 0.00 0.00 0.00 43 1012.9
20260505192305 48 239 6.0 15.0 0.00 0.00 0.00 43 1013.1
20260505191800 48 215 4.0 9.0 0.00 0.00 0.00 43 1013.1
20260505191258 48 231 5.0 10.0 0.00 0.00 0.00 42 1013.0
20260505190754 48 235 5.0 9.0 0.00 0.00 0.00 42 1013.0
20260505190249 47 255 5.0 11.0 0.00 0.00 0.00 42 1013.1
20260505185746 48 247 8.0 11.0 0.00 0.00 0.00 42 1013.3
20260505185243 48 202 4.0 9.0 0.00 0.00 0.00 42 1013.1
20260505184738 48 191 3.0 10.0 0.00 0.00 0.00 43 1013.1
20260505184236 48 182 7.0 13.0 0.00 0.00 0.00 44 1013.1
20260505183733 47 165 4.0 14.0 0.00 0.00 0.00 43 1013.1
20260505183230 47 231 4.0 9.0 0.00 0.00 0.00 43 1013.1
20260505182726 47 257 9.0 14.0 0.00 0.00 0.00 43 1013.1
20260505182224 47 253 6.0 10.0 0.00 0.00 0.00 43 1013.0
20260505181720 47 221 4.0 10.0 0.00 0.00 0.00 44 1013.1
20260505181217 49 207 3.0 6.0 0.00 0.00 0.00 42 1013.0
20260505180714 48 219 5.0 9.0 0.00 0.00 0.00 43 1013.2
20260505180211 48 222 4.0 7.0 0.00 0.00 0.00 42 1013.1
20260505175707 47 251 5.0 14.0 0.00 0.00 0.00 43 1013.0
20260505175203 47 179 3.0 7.0 0.00 0.00 0.00 42 1013.1
20260505174700 46 204 4.0 9.0 0.00 0.00 0.00 44 1012.9
20260505174156 47 162 5.0 11.0 0.00 0.00 0.00 43 1013.1
20260505173653 47 229 4.0 9.0 0.00 0.00 0.00 42 1013.0
20260505173150 47 195 4.0 6.0 0.00 0.00 0.00 43 1013.2
20260505172647 47 95 1.0 5.0 0.00 0.00 0.00 46 1013.4
20260505172144 46 268 4.0 7.0 0.00 0.00 0.00 44 1013.3
20260505171643 48 217 5.0 13.0 0.00 0.00 0.00 42 1013.2
20260505171141 47 294 3.0 6.0 0.00 0.00 0.00 41 1013.3
20260505170638 47 129 6.0 11.0 0.00 0.00 0.00 42 1013.3
20260505170134 47 238 11.0 15.0 0.00 0.00 0.00 41 1013.5
20260505165629 47 216 8.0 9.0 0.00 0.00 0.00 42 1013.4
20260505165125 47 197 4.0 14.0 0.00 0.00 0.00 42 1013.2
20260505164621 46 230 4.0 15.0 0.00 0.00 0.00 42 1013.3
20260505164119 46 167 6.0 11.0 0.00 0.00 0.00 42 1013.3
20260505163617 45 219 6.0 10.0 0.00 0.00 0.00 45 1013.3
20260505163114 44 151 3.0 5.0 0.00 0.00 0.00 45 1013.4
20260505162612 45 215 2.0 9.0 0.00 0.00 0.00 46 1013.2
20260505162109 45 9 1.0 6.0 0.00 0.00 0.00 44 1013.1
20260505161606 44 295 2.0 8.0 0.00 0.00 0.00 45 1013.4
20260505161104 44 230 4.0 8.0 0.00 0.00 0.00 45 1013.2
20260505160601 45 247 6.0 11.0 0.00 0.00 0.00 44 1013.3
20260505153038 44 183 5.0 14.0 0.00 0.00 0.00 45 1013.3
20260505152535 45 253 2.0 6.0 0.00 0.00 0.00 45 1013.1
20260505152030 44 106 1.0 7.0 0.00 0.00 0.00 47 1013.2
20260505151525 44 179 4.0 7.0 0.00 0.00 0.00 47 1013.2
20260505151023 43 256 4.0 11.0 0.00 0.00 0.00 47 1013.0
20260505150519 44 233 10.0 14.0 0.00 0.00 0.00 46 1013.0
20260505140444 42 208 4.0 7.0 0.00 0.00 0.00 48 1012.6
20260505124857 39 275 1.0 8.0 0.00 0.00 0.00 55 1012.3
20260505124355 40 219 3.0 6.0 0.00 0.00 0.00 55 1011.8
20260505123850 39 249 2.0 3.0 0.00 0.00 0.00 55 1011.8
20260505123347 39 217 2.0 6.0 0.00 0.00 0.00 57 1011.8
20260505122843 39 223 2.0 6.0 0.00 0.00 0.00 56 1011.5
20260505122341 39 210 6.0 8.0 0.00 0.00 0.00 57 1011.6
20260505121837 39 188 3.0 6.0 0.00 0.00 0.00 57 1011.6
20260505121334 39 281 4.0 5.0 0.00 0.00 0.00 58 1011.5
20260505120830 39 161 2.0 3.0 0.00 0.00 0.00 60 1011.4
20260505120327 39 197 1.0 3.0 0.00 0.00 0.00 61 1011.2
20260505115826 39 167 2.0 2.0 0.00 0.00 0.00 61 1011.3
20260505115323 38 231 2.0 5.0 0.00 0.00 0.00 62 1011.0
20260505114821 38 266 3.0 7.0 0.00 0.00 0.00 63 1011.0
20260505114317 37 194 3.0 3.0 0.00 0.00 0.00 64 1010.9
20260505113813 37 229 3.0 6.0 0.00 0.00 0.00 65 1010.7
20260505113309 37 202 2.0 3.0 0.00 0.00 0.00 65 1010.8
20260505112805 37 226 7.0 9.0 0.00 0.00 0.00 65 1010.6
20260505112305 37 229 2.0 5.0 0.00 0.00 0.00 66 1010.9
20260505111759 37 245 2.0 6.0 0.00 0.00 0.00 65 1010.5
20260505111254 37 187 1.0 3.0 0.00 0.00 0.00 65 1010.6
20260505110750 37 214 3.0 5.0 0.00 0.00 0.00 65 1010.5
20260505110248 37 242 2.0 6.0 0.00 0.00 0.00 65 1010.6
20260505101722 38 217 2.0 5.0 0.00 0.00 0.00 65 1010.5
20260505101218 38 264 2.0 7.0 0.00 0.00 0.00 66 1010.3
20260505100715 38 234 1.0 3.0 0.00 0.00 0.00 65 1010.3
20260505100212 38 248 3.0 6.0 0.00 0.00 0.00 65 1010.3
20260505095707 39 242 2.0 6.0 0.00 0.00 0.00 65 1010.1
20260505095205 39 224 7.0 9.0 0.00 0.00 0.00 65 1010.0
20260505094700 39 221 4.0 7.0 0.00 0.00 0.00 65 1010.1
20260505094157 39 308 3.0 7.0 0.00 0.00 0.00 64 1010.2
20260505093653 39 172 0.0 5.0 0.00 0.00 0.00 65 1009.9
20260505093151 39 228 1.0 3.0 0.00 0.00 0.00 65 1009.8
20260505092648 39 194 1.0 6.0 0.00 0.00 0.00 64 1009.9
20260505092147 39 247 2.0 6.0 0.00 0.00 0.00 63 1009.8
20260505091643 39 214 4.0 8.0 0.00 0.00 0.00 64 1009.9
20260505091141 39 239 3.0 6.0 0.00 0.00 0.00 64 1009.9
20260505090638 39 240 1.0 6.0 0.00 0.00 0.00 63 1010.0
20260505090137 39 199 1.0 3.0 0.00 0.00 0.00 63 1009.7
20260505085633 40 203 4.0 6.0 0.00 0.00 0.00 62 1009.7
20260505085132 40 172 2.0 8.0 0.00 0.00 0.00 62 1009.7
20260505084629 40 358 1.0 5.0 0.00 0.00 0.00 62 1009.5
20260505084128 40 256 1.0 9.0 0.00 0.00 0.00 61 1009.4
20260505083625 40 156 0.0 6.0 0.00 0.00 0.00 61 1009.2
20260505083121 40 236 3.0 5.0 0.00 0.00 0.00 60 1009.5
20260505082616 41 246 1.0 6.0 0.00 0.00 0.00 60 1009.4
20260505070827 42 215 2.0 3.0 0.00 0.00 0.00 56 1008.8
20260505070323 42 215 2.0 3.0 0.00 0.00 0.00 56 1008.8
20260505065819 42 245 3.0 7.0 0.00 0.00 0.00 55 1008.9
20260505065316 42 257 7.0 11.0 0.00 0.00 0.00 55 1008.8
20260505064813 42 224 3.0 10.0 0.00 0.00 0.00 55 1009.0
20260505064310 43 213 3.0 8.0 0.00 0.00 0.00 55 1009.0
20260505063808 43 222 5.0 10.0 0.00 0.00 0.00 55 1008.9
20260505063304 43 233 1.0 9.0 0.00 0.00 0.00 56 1009.1
20260505062800 43 199 3.0 6.0 0.00 0.00 0.00 56 1008.7
20260505062258 43 271 3.0 6.0 0.00 0.00 0.00 56 1009.0
20260505061754 43 232 2.0 9.0 0.00 0.00 0.00 54 1009.0
20260505061253 43 245 7.0 11.0 0.00 0.00 0.00 55 1009.1
20260505060750 43 216 2.0 8.0 0.00 0.00 0.00 55 1009.1
20260505060247 44 216 2.0 7.0 0.00 0.00 0.00 54 1009.1
20260505055742 44 197 6.0 8.0 0.00 0.00 0.00 54 1008.8
20260505055238 44 236 3.0 5.0 0.00 0.00 0.00 54 1009.1
20260505054736 44 238 3.0 10.0 0.00 0.00 0.00 54 1009.0
20260505054233 44 261 4.0 8.0 0.00 0.00 0.00 54 1009.0
20260505053732 44 233 3.0 6.0 0.00 0.00 0.00 54 1008.8
20260505053222 44 260 4.0 11.0 0.00 0.00 0.00 54 1008.6
20260505052719 44 173 1.0 5.0 0.00 0.00 0.00 55 1008.6
20260505052216 44 220 1.0 5.0 0.00 0.00 0.00 54 1008.8
20260505051713 44 244 3.0 5.0 0.00 0.00 0.00 54 1008.7
20260505051211 44 264 7.0 9.0 0.00 0.00 0.00 54 1008.8
20260505050709 45 255 3.0 5.0 0.00 0.00 0.00 54 1008.6
20260505050207 45 201 3.0 8.0 0.00 0.00 0.00 54 1008.4
20260505041631 44 214 0.0 1.0 0.00 0.00 0.00 56 1008.4
20260505041128 45 244 1.0 3.0 0.00 0.00 0.00 55 1008.6
20260505040625 45 193 0.0 2.0 0.00 0.00 0.00 54 1008.7
20260505040122 45 199 2.0 3.0 0.00 0.00 0.00 53 1008.4
20260505035619 45 247 3.0 5.0 0.00 0.00 0.00 52 1008.4
20260505035115 46 234 5.0 8.0 0.00 0.00 0.00 51 1008.3
20260505034612 46 221 3.0 7.0 0.00 0.00 0.00 52 1008.4
20260505034109 46 229 2.0 5.0 0.00 0.00 0.00 51 1008.2